Total_Precipitation_Accumulation
0.54 0.52 0.55 0.61 0.62 0.65 0.67 0.68 0.66 0.72 0.76 0.80 0.95 1.19 1.47 1.58 1.67 1.58 1.38 1.33 1.47 1.76 2.02 1.95 2.01 2.07 2.01 1.99 1.98 2.23 2.20 1.94 1.77 1.87 1.72 1.56 1.44 1.61 1.64 1.57 1.66 1.73 1.85
0.44 0.40 0.44 0.48 0.51 0.53 0.60 0.65 0.64 0.69 0.72 0.77 0.95 1.13 1.30 1.30 1.46 1.58 1.54 1.46 1.45 1.63 1.80 2.08 2.22 2.18 2.32 2.42 2.39 2.76 2.92 2.43 2.00 2.15 2.43 2.17 1.98 1.78 1.63 1.66 1.70 1.84 2.06
0.44 0.42 0.41 0.43 0.43 0.43 0.44 0.48 0.52 0.60 0.70 0.83 1.04 1.28 1.52 1.60 1.62 1.52 1.58 1.59 1.50 1.57 1.72 1.87 2.02 2.06 2.21 2.40 2.52 2.84 3.40 3.16 2.49 2.31 2.77 2.59 2.39 2.25 1.91 1.72 1.72 1.79 2.04
0.44 0.49 0.45 0.46 0.42 0.41 0.41 0.44 0.53 0.66 0.86 1.05 1.26 1.51 1.72 1.78 1.65 1.63 1.65 1.54 1.45 1.44 1.57 1.71 1.82 1.95 2.01 2.19 2.29 2.43 3.02 3.44 3.10 2.80 2.50 2.20 2.18 2.39 2.38 2.00 1.78 1.77 1.90
0.42 0.45 0.45 0.47 0.48 0.48 0.52 0.55 0.73 0.95 1.21 1.41 1.67 1.96 1.94 1.83 1.73 1.67 1.64 1.58 1.55 1.52 1.53 1.70 1.76 1.77 1.86 2.01 2.35 2.62 2.93 3.19 3.22 3.20 2.97 2.67 2.39 2.06 2.35 2.43 2.08 1.93 1.89
0.43 0.52 0.59 0.68 0.73 0.76 0.91 1.10 1.35 1.50 1.59 1.72 1.87 1.99 1.94 1.94 1.89 1.71 1.60 1.58 1.62 1.67 1.68 1.73 1.76 1.74 1.79 1.91 2.18 2.50 2.72 3.05 3.29 3.26 3.06 2.93 2.81 2.54 2.47 2.36 2.20 2.21 2.07
0.48 0.63 0.82 0.96 1.08 1.22 1.38 1.53 1.68 1.82 1.76 1.73 1.80 1.83 1.81 1.78 1.77 1.71 1.64 1.57 1.56 1.61 1.63 1.70 1.83 1.90 1.95 2.08 2.26 2.44 2.39 2.58 3.01 3.05 2.91 2.85 2.69 2.62 2.69 2.64 2.32 2.18 1.92
0.66 0.79 0.87 1.00 1.18 1.34 1.42 1.44 1.54 1.66 1.65 1.61 1.60 1.58 1.61 1.61 1.57 1.49 1.46 1.50 1.58 1.56 1.49 1.53 1.64 1.75 1.94 2.00 2.08 2.15 2.11 2.22 2.46 2.57 2.77 2.90 2.69 2.61 2.51 2.50 2.57 2.33 2.04
0.93 1.09 1.21 1.33 1.38 1.43 1.50 1.43 1.45 1.51 1.52 1.48 1.43 1.45 1.44 1.49 1.49 1.41 1.42 1.40 1.39 1.31 1.22 1.22 1.29 1.37 1.45 1.55 1.71 1.82 1.92 1.99 2.12 2.24 2.38 2.56 2.70 2.65 2.49 2.48 2.49 2.49 2.28
1.17 1.47 1.75 1.92 1.74 1.49 1.42 1.41 1.36 1.37 1.47 1.48 1.43 1.41 1.48 1.48 1.45 1.45 1.40 1.37 1.37 1.27 1.17 1.12 1.09 1.07 1.03 1.09 1.28 1.47 1.60 1.70 1.86 2.05 2.18 2.23 2.31 2.53 2.54 2.41 2.43 2.38 2.25
1.30 1.48 1.71 1.91 1.83 1.51 1.27 1.32 1.38 1.40 1.43 1.43 1.44 1.43 1.42 1.32 1.30 1.33 1.30 1.27 1.27 1.30 1.26 1.16 1.09 1.17 1.15 1.10 1.16 1.21 1.27 1.36 1.52 1.66 1.79 1.95 2.21 2.53 2.59 2.56 2.46 2.39 2.28
1.22 1.21 1.29 1.37 1.45 1.33 1.12 1.08 1.24 1.35 1.36 1.36 1.39 1.37 1.26 1.18 1.17 1.17 1.08 0.97 0.91 0.92 1.02 1.14 1.07 1.03 1.05 1.07 1.14 1.13 1.16 1.22 1.34 1.46 1.59 1.78 2.07 2.42 2.64 2.73 2.61 2.48 2.38
1.23 1.20 1.12 1.06 1.10 1.09 1.03 0.99 1.14 1.29 1.36 1.36 1.24 1.15 1.08 1.06 1.10 1.03 0.96 0.90 0.79 0.73 0.75 0.85 0.85 0.93 1.02 1.04 1.08 1.10 1.13 1.16 1.26 1.42 1.49 1.55 1.77 1.97 2.16 2.36 2.48 2.46 2.46
0.96 0.93 0.89 0.81 0.78 0.83 0.88 0.93 1.07 1.16 1.30 1.42 1.33 1.20 1.11 1.08 1.06 1.02 0.99 0.92 0.85 0.82 0.82 0.93 0.98 0.93 0.91 0.96 1.04 1.08 1.06 1.06 1.08 1.16 1.27 1.37 1.44 1.64 1.78 1.89 2.10 2.31 2.56
0.59 0.61 0.65 0.64 0.57 0.55 0.56 0.66 0.81 0.98 1.18 1.43 1.42 1.28 1.22 1.19 1.07 1.01 1.02 0.99 0.99 0.92 0.90 0.98 1.08 1.12 1.07 1.05 1.11 1.06 1.05 1.07 1.05 1.08 1.08 1.15 1.22 1.32 1.52 1.55 1.77 2.09 2.39
0.42 0.46 0.49 0.54 0.45 0.38 0.40 0.43 0.54 0.74 0.91 1.12 1.21 1.18 1.10 1.00 0.99 1.00 0.97 0.92 0.90 0.85 0.79 0.79 0.84 0.93 1.00 1.29 1.23 1.01 0.93 0.99 1.04 1.08 1.07 1.10 1.07 1.05 1.15 1.29 1.41 1.70 1.95
0.34 0.38 0.40 0.45 0.45 0.42 0.40 0.41 0.47 0.57 0.70 0.86 0.98 0.97 0.91 0.83 0.84 0.89 0.86 0.82 0.76 0.76 0.72 0.71 0.67 0.70 0.90 1.06 0.88 0.84 0.83 0.93 1.04 1.11 1.16 1.12 1.06 1.10 1.11 1.15 1.17 1.22 1.43
0.33 0.34 0.38 0.39 0.38 0.40 0.41 0.42 0.42 0.45 0.51 0.61 0.69 0.71 0.72 0.71 0.72 0.74 0.76 0.80 0.75 0.69 0.66 0.69 0.74 0.73 0.78 0.92 0.77 0.72 0.75 0.93 1.05 1.06 1.02 1.11 1.15 1.19 1.24 1.16 1.20 1.14 1.13
0.23 0.23 0.24 0.26 0.28 0.30 0.32 0.34 0.39 0.41 0.41 0.44 0.49 0.53 0.56 0.59 0.64 0.67 0.71 0.83 0.83 0.76 0.73 0.82 0.86 0.79 0.76 0.86 0.81 0.81 0.87 0.99 1.08 1.04 1.06 1.15 1.20 1.38 1.44 1.32 1.36 1.30 1.26
0.14 0.14 0.13 0.13 0.18 0.23 0.25 0.28 0.33 0.38 0.40 0.41 0.43 0.48 0.49 0.52 0.60 0.68 0.71 0.69 0.67 0.70 0.75 0.76 0.71 0.70 0.78 0.92 0.87 0.92 1.01 1.11 1.22 1.19 1.20 1.44 1.40 1.41 1.35 1.27 1.43 1.40 1.25
0.11 0.12 0.12 0.13 0.16 0.24 0.29 0.29 0.33 0.35 0.38 0.43 0.44 0.46 0.48 0.50 0.54 0.54 0.52 0.54 0.60 0.59 0.57 0.56 0.60 0.63 0.78 0.86 0.90 1.07 1.09 1.13 1.28 1.31 1.29 1.25 1.41 1.36 1.28 1.27 1.28 1.43 1.33
0.11 0.11 0.12 0.14 0.14 0.18 0.27 0.30 0.35 0.37 0.37 0.38 0.38 0.37 0.39 0.39 0.42 0.44 0.43 0.42 0.49 0.54 0.56 0.58 0.60 0.62 0.67 0.73 0.80 0.94 1.04 1.10 1.26 1.34 1.24 1.14 1.39 1.34 1.25 1.15 1.16 1.33 1.40
0.13 0.13 0.15 0.20 0.23 0.19 0.23 0.29 0.35 0.39 0.39 0.36 0.31 0.32 0.32 0.33 0.32 0.35 0.40 0.44 0.45 0.47 0.50 0.54 0.59 0.67 0.68 0.69 0.81 0.85 0.91 1.04 1.19 1.26 1.29 1.26 1.29 1.21 1.13 1.22 1.24 1.26 1.27
0.13 0.16 0.20 0.24 0.29 0.27 0.29 0.33 0.36 0.37 0.36 0.33 0.30 0.31 0.30 0.29 0.28 0.31 0.35 0.38 0.40 0.41 0.46 0.52 0.56 0.61 0.66 0.68 0.80 0.91 0.93 1.02 1.07 1.08 1.14 1.13 1.09 1.09 1.08 1.13 1.21 1.25 1.30
0.12 0.16 0.22 0.26 0.28 0.31 0.36 0.39 0.37 0.33 0.33 0.31 0.30 0.29 0.32 0.31 0.28 0.27 0.31 0.36 0.40 0.48 0.54 0.55 0.57 0.56 0.56 0.65 0.81 0.95 1.03 1.16 1.29 1.29 1.14 1.07 1.04 1.02 1.00 1.02 1.07 1.14 1.16
0.15 0.18 0.22 0.25 0.27 0.30 0.34 0.36 0.34 0.29 0.28 0.30 0.30 0.29 0.28 0.28 0.30 0.32 0.30 0.34 0.39 0.50 0.55 0.58 0.58 0.57 0.62 0.64 0.64 0.72 0.92 1.13 1.43 1.66 1.56 1.47 1.32 1.20 1.09 1.04 1.00 0.97 1.00